Year,Month,Day,Hour,Minute,Value (Times are PST for temperature in C)
2016,02,25,07,51,4.30
2016,02,25,07,52,4.30
2016,02,25,07,53,4.40
2016,02,25,07,54,4.40
2016,02,25,07,55,4.40
2016,02,25,07,56,4.40
2016,02,25,07,57,4.50
2016,02,25,07,58,4.50
2016,02,25,07,59,4.50
2016,02,25,08,00,4.60
2016,02,25,08,01,4.60
2016,02,25,08,02,4.60
2016,02,25,08,03,4.70
2016,02,25,08,04,4.70
2016,02,25,08,05,4.70
2016,02,25,08,06,4.80
2016,02,25,08,07,4.80
2016,02,25,08,08,4.80
2016,02,25,08,09,4.80
2016,02,25,08,10,4.90
2016,02,25,08,11,4.90
2016,02,25,08,12,4.90
2016,02,25,08,13,5.00
2016,02,25,08,14,5.00
2016,02,25,08,15,5.00
2016,02,25,08,16,5.10
2016,02,25,08,17,5.10
2016,02,25,08,18,5.10
2016,02,25,08,19,5.20
2016,02,25,08,20,5.30
2016,02,25,08,21,5.30
2016,02,25,08,22,5.30
2016,02,25,08,23,5.40
2016,02,25,08,24,5.40
2016,02,25,08,25,5.40
2016,02,25,08,26,5.50
2016,02,25,08,27,5.50
2016,02,25,08,28,5.50
2016,02,25,08,29,5.40
2016,02,25,08,30,5.40
2016,02,25,08,31,5.40
2016,02,25,08,32,5.40
2016,02,25,08,33,5.30
2016,02,25,08,34,5.30
2016,02,25,08,35,5.30
2016,02,25,08,36,5.30
2016,02,25,08,37,5.30
2016,02,25,08,38,5.30
2016,02,25,08,39,5.30
2016,02,25,08,40,5.30
2016,02,25,08,41,5.30
2016,02,25,08,42,5.30
2016,02,25,08,43,5.30
2016,02,25,08,44,5.30
2016,02,25,08,45,5.30
2016,02,25,08,46,5.30
2016,02,25,08,47,5.30
2016,02,25,08,48,5.30
2016,02,25,08,49,5.30
2016,02,25,08,50,5.30
2016,02,25,08,51,5.30
2016,02,25,08,52,5.30
2016,02,25,08,53,5.30
2016,02,25,08,54,5.30
2016,02,25,08,55,5.40
2016,02,25,08,56,5.30
2016,02,25,08,57,5.30
2016,02,25,08,58,5.30
2016,02,25,08,59,5.30
2016,02,25,09,00,5.30
2016,02,25,09,01,5.30
2016,02,25,09,02,5.30
2016,02,25,09,03,5.40
2016,02,25,09,04,5.30
2016,02,25,09,05,5.40
2016,02,25,09,06,5.40
2016,02,25,09,07,5.40
2016,02,25,09,08,5.40
2016,02,25,09,09,5.40
2016,02,25,09,10,5.40
2016,02,25,09,11,5.40
2016,02,25,09,12,5.50
2016,02,25,09,13,5.50
2016,02,25,09,14,5.50
2016,02,25,09,15,5.60
2016,02,25,09,16,5.60
2016,02,25,09,17,5.60
2016,02,25,09,18,5.70
2016,02,25,09,19,5.70
2016,02,25,09,20,5.70
2016,02,25,09,21,5.80
2016,02,25,09,22,5.80
2016,02,25,09,23,5.80
2016,02,25,09,24,5.80
2016,02,25,09,25,5.80
2016,02,25,09,26,5.90
2016,02,25,09,27,5.90
2016,02,25,09,28,5.90
2016,02,25,09,29,6.00
2016,02,25,09,30,6.00
2016,02,25,09,31,6.10
2016,02,25,09,32,6.10
2016,02,25,09,33,6.10
2016,02,25,09,34,6.10
2016,02,25,09,35,6.10
2016,02,25,09,36,6.10
2016,02,25,09,37,6.10
2016,02,25,09,38,6.20
2016,02,25,09,39,6.20
2016,02,25,09,40,6.20
2016,02,25,09,41,6.20
2016,02,25,09,42,6.30
2016,02,25,09,43,6.30
2016,02,25,09,44,6.30
2016,02,25,09,45,6.30
2016,02,25,09,46,6.40
2016,02,25,09,47,6.50
2016,02,25,09,48,6.50
2016,02,25,09,49,6.60
2016,02,25,09,50,6.60
2016,02,25,09,51,6.70
2016,02,25,09,52,6.70
2016,02,25,09,53,6.80
2016,02,25,09,54,6.80
2016,02,25,09,55,6.80
2016,02,25,09,56,6.80
2016,02,25,09,57,6.80
2016,02,25,09,58,6.90
2016,02,25,09,59,6.90
2016,02,25,10,00,7.00
2016,02,25,10,01,7.00
2016,02,25,10,02,7.10
2016,02,25,10,03,7.10
2016,02,25,10,04,7.10
2016,02,25,10,05,7.20
2016,02,25,10,06,7.20
2016,02,25,10,07,7.20
2016,02,25,10,08,7.30
2016,02,25,10,09,7.30
2016,02,25,10,10,7.40
2016,02,25,10,11,7.40
2016,02,25,10,12,7.50
2016,02,25,10,13,7.50
2016,02,25,10,14,7.50
2016,02,25,10,15,7.50
2016,02,25,10,16,7.50
2016,02,25,10,17,7.60
2016,02,25,10,18,7.60
2016,02,25,10,19,7.60
2016,02,25,10,20,7.60
2016,02,25,10,21,7.70
2016,02,25,10,22,7.70
2016,02,25,10,23,7.80
2016,02,25,10,24,7.80
2016,02,25,10,25,7.80
2016,02,25,10,26,7.90
2016,02,25,10,27,7.90
2016,02,25,10,28,8.00
2016,02,25,10,29,8.10
2016,02,25,10,30,8.20
2016,02,25,10,31,8.20
2016,02,25,10,32,8.30
2016,02,25,10,33,8.40
2016,02,25,10,34,8.50
2016,02,25,10,35,8.50
2016,02,25,10,36,8.60
2016,02,25,10,37,8.60
2016,02,25,10,38,8.70
2016,02,25,10,39,8.70
2016,02,25,10,40,8.70
2016,02,25,10,41,8.60
2016,02,25,10,42,8.60
2016,02,25,10,43,8.50
2016,02,25,10,44,8.50
2016,02,25,10,45,8.50
2016,02,25,10,46,8.40
2016,02,25,10,47,8.40
2016,02,25,10,48,8.40
2016,02,25,10,49,8.40
2016,02,25,10,50,8.40
2016,02,25,10,51,8.50
2016,02,25,10,52,8.50
2016,02,25,10,53,8.60
2016,02,25,10,54,8.70
2016,02,25,10,55,8.80
2016,02,25,10,56,8.90
2016,02,25,10,57,9.00
2016,02,25,10,58,9.00
2016,02,25,10,59,9.10
2016,02,25,11,00,9.10
2016,02,25,11,01,9.10
2016,02,25,11,02,9.20
2016,02,25,11,03,9.30
2016,02,25,11,04,9.30
2016,02,25,11,05,9.30
2016,02,25,11,06,9.30
2016,02,25,11,07,9.30
2016,02,25,11,08,9.40
2016,02,25,11,09,9.40
2016,02,25,11,10,9.50
2016,02,25,11,11,9.60
2016,02,25,11,12,9.70
2016,02,25,11,13,9.80
2016,02,25,11,14,9.90
2016,02,25,11,15,10.00
2016,02,25,11,16,10.10
2016,02,25,11,17,10.20
2016,02,25,11,18,10.20
2016,02,25,11,19,10.30
2016,02,25,11,20,10.40
2016,02,25,11,21,10.40
2016,02,25,11,22,10.50
2016,02,25,11,23,10.60
2016,02,25,11,24,10.60
2016,02,25,11,25,10.70
2016,02,25,11,26,10.80
2016,02,25,11,27,10.80
2016,02,25,11,28,10.80
2016,02,25,11,29,10.90
2016,02,25,11,30,10.90
2016,02,25,11,31,10.90
2016,02,25,11,32,10.80
2016,02,25,11,33,10.70
2016,02,25,11,34,10.70
2016,02,25,11,35,10.70
2016,02,25,11,36,10.70
2016,02,25,11,37,10.60
2016,02,25,11,38,10.50
2016,02,25,11,39,10.40
2016,02,25,11,40,10.30
2016,02,25,11,41,10.30
2016,02,25,11,42,10.30
2016,02,25,11,43,10.30
2016,02,25,11,44,10.20
2016,02,25,11,45,10.20
2016,02,25,11,46,10.30
2016,02,25,11,47,10.30
2016,02,25,11,48,10.50
2016,02,25,11,49,10.60
2016,02,25,11,50,10.70
2016,02,25,11,51,10.80
2016,02,25,11,52,10.80
2016,02,25,11,53,10.90
2016,02,25,11,54,11.00
2016,02,25,11,55,11.00
2016,02,25,11,56,11.10
2016,02,25,11,57,11.20
2016,02,25,11,58,11.20
2016,02,25,11,59,11.20
2016,02,25,12,00,11.20
2016,02,25,12,01,11.20
2016,02,25,12,02,11.10
2016,02,25,12,03,11.00
2016,02,25,12,04,11.00
2016,02,25,12,05,11.00
2016,02,25,12,06,11.10
2016,02,25,12,07,11.20
2016,02,25,12,08,11.30
2016,02,25,12,09,11.40
2016,02,25,12,10,11.50
2016,02,25,12,11,11.60
2016,02,25,12,12,11.60
2016,02,25,12,13,11.70
2016,02,25,12,14,11.70
2016,02,25,12,15,11.70
2016,02,25,12,16,11.80
2016,02,25,12,17,11.80
2016,02,25,12,18,11.80
2016,02,25,12,19,11.80
2016,02,25,12,20,11.80
2016,02,25,12,21,11.80
2016,02,25,12,22,11.80
2016,02,25,12,23,11.60
2016,02,25,12,24,11.40
2016,02,25,12,25,11.30
2016,02,25,12,26,11.20
2016,02,25,12,27,11.10
2016,02,25,12,28,11.10
2016,02,25,12,29,11.00
2016,02,25,12,30,11.00
2016,02,25,12,31,11.00
2016,02,25,12,32,10.90
2016,02,25,12,33,10.90
2016,02,25,12,34,10.90
2016,02,25,12,35,11.00
2016,02,25,12,36,11.10
2016,02,25,12,37,11.20
2016,02,25,12,38,11.30
2016,02,25,12,39,11.50
2016,02,25,12,40,11.60
2016,02,25,12,41,11.70
2016,02,25,12,42,11.80
2016,02,25,12,43,11.80
2016,02,25,12,44,11.90
2016,02,25,12,45,12.00
2016,02,25,12,46,12.10
2016,02,25,12,47,12.10
2016,02,25,12,48,12.20
2016,02,25,12,49,12.20
2016,02,25,12,50,12.30
2016,02,25,12,51,12.30
2016,02,25,12,52,12.30
2016,02,25,12,53,12.20
2016,02,25,12,54,12.20
2016,02,25,12,55,12.20
2016,02,25,12,56,12.20
2016,02,25,12,57,12.20
2016,02,25,12,58,12.20
2016,02,25,12,59,12.20
2016,02,25,13,00,12.20
2016,02,25,13,01,12.30
2016,02,25,13,02,12.30
2016,02,25,13,03,12.30
2016,02,25,13,04,12.30
2016,02,25,13,05,12.30
2016,02,25,13,06,12.30
2016,02,25,13,07,12.40
2016,02,25,13,08,12.40
2016,02,25,13,09,12.40
2016,02,25,13,10,12.40
2016,02,25,13,11,12.40
2016,02,25,13,12,12.40
2016,02,25,13,13,12.30
2016,02,25,13,14,12.30
2016,02,25,13,15,12.30
2016,02,25,13,16,12.40
2016,02,25,13,17,12.40
2016,02,25,13,18,12.40
2016,02,25,13,19,12.40
2016,02,25,13,20,12.40
2016,02,25,13,21,12.40
2016,02,25,13,22,12.40
2016,02,25,13,23,12.40
2016,02,25,13,24,12.40
2016,02,25,13,25,12.40
2016,02,25,13,26,12.40
2016,02,25,13,27,12.50
2016,02,25,13,28,12.50
2016,02,25,13,29,12.50
2016,02,25,13,30,12.50
2016,02,25,13,31,12.50
2016,02,25,13,32,12.40
2016,02,25,13,33,12.40
2016,02,25,13,34,12.40
2016,02,25,13,35,12.40
2016,02,25,13,36,12.40
2016,02,25,13,37,12.40
2016,02,25,13,38,12.40
2016,02,25,13,39,12.40
2016,02,25,13,40,12.40
2016,02,25,13,41,12.40
2016,02,25,13,42,12.30
2016,02,25,13,43,12.30
2016,02,25,13,44,12.30
2016,02,25,13,45,12.20
2016,02,25,13,46,12.20
2016,02,25,13,47,12.20
2016,02,25,13,48,12.20
2016,02,25,13,49,12.20
2016,02,25,13,50,12.20
2016,02,25,13,51,12.30
2016,02,25,13,52,12.40
2016,02,25,13,53,12.50
2016,02,25,13,54,12.50
2016,02,25,13,55,12.60
2016,02,25,13,56,12.70
2016,02,25,13,57,12.70
2016,02,25,13,58,12.80
2016,02,25,13,59,12.80
2016,02,25,14,00,12.90
2016,02,25,14,01,12.90
2016,02,25,14,02,12.90
2016,02,25,14,03,12.90
2016,02,25,14,04,13.00
2016,02,25,14,05,13.00
2016,02,25,14,06,13.10
2016,02,25,14,07,13.10
2016,02,25,14,08,13.20
2016,02,25,14,09,13.20
2016,02,25,14,10,13.30
2016,02,25,14,11,13.30
2016,02,25,14,12,13.40
2016,02,25,14,13,13.40
2016,02,25,14,14,13.40
2016,02,25,14,15,13.40
2016,02,25,14,16,13.40
2016,02,25,14,17,13.40
2016,02,25,14,18,13.40
2016,02,25,14,19,13.40
2016,02,25,14,20,13.40
2016,02,25,14,21,13.30
2016,02,25,14,22,13.30
2016,02,25,14,23,13.20
2016,02,25,14,24,13.30
2016,02,25,14,25,13.30
2016,02,25,14,26,13.30
2016,02,25,14,27,13.30
2016,02,25,14,28,13.40
2016,02,25,14,29,13.40
2016,02,25,14,30,13.50
2016,02,25,14,31,13.50
2016,02,25,14,32,13.50
2016,02,25,14,33,13.40
2016,02,25,14,34,13.40
2016,02,25,14,35,13.30
2016,02,25,14,36,13.30
2016,02,25,14,37,13.20
2016,02,25,14,38,13.20
2016,02,25,14,39,13.20
2016,02,25,14,40,13.20
2016,02,25,14,41,13.10
2016,02,25,14,42,13.10
2016,02,25,14,43,13.10
2016,02,25,14,44,13.00
2016,02,25,14,45,12.90
2016,02,25,14,46,12.80
2016,02,25,14,47,12.70
2016,02,25,14,48,12.70
2016,02,25,14,49,12.70
2016,02,25,14,50,12.60
2016,02,25,14,51,12.70
2016,02,25,14,52,12.70
2016,02,25,14,53,12.70
2016,02,25,14,54,12.70
2016,02,25,14,55,12.70
2016,02,25,14,56,12.70
2016,02,25,14,57,12.60
2016,02,25,14,58,12.60
2016,02,25,14,59,12.60
2016,02,25,15,00,12.60
2016,02,25,15,01,12.60
2016,02,25,15,02,12.60
2016,02,25,15,03,12.70
2016,02,25,15,04,12.80
2016,02,25,15,05,12.80
2016,02,25,15,06,12.80
2016,02,25,15,07,12.80
2016,02,25,15,08,12.80
2016,02,25,15,09,12.80
2016,02,25,15,10,12.80
2016,02,25,15,11,12.80
2016,02,25,15,12,12.80
2016,02,25,15,13,12.80
2016,02,25,15,14,12.70
2016,02,25,15,15,12.70
2016,02,25,15,16,12.70
2016,02,25,15,17,12.70
2016,02,25,15,18,12.80
2016,02,25,15,19,12.80
2016,02,25,15,20,12.80
2016,02,25,15,21,12.80
2016,02,25,15,22,12.80
2016,02,25,15,23,12.90
2016,02,25,15,24,12.90
2016,02,25,15,25,12.90
2016,02,25,15,26,13.00
2016,02,25,15,27,13.00
2016,02,25,15,28,13.00
2016,02,25,15,29,13.00
2016,02,25,15,30,13.00
2016,02,25,15,31,12.90
2016,02,25,15,32,12.90
2016,02,25,15,33,12.90
2016,02,25,15,34,12.90
2016,02,25,15,35,12.90
2016,02,25,15,36,13.00
2016,02,25,15,37,13.00
2016,02,25,15,38,13.10
2016,02,25,15,39,13.10
2016,02,25,15,40,13.00
2016,02,25,15,41,13.00
2016,02,25,15,42,13.00
2016,02,25,15,43,13.00
2016,02,25,15,44,12.90
2016,02,25,15,45,12.90
2016,02,25,15,46,12.90
2016,02,25,15,47,12.90
2016,02,25,15,48,12.90
2016,02,25,15,49,12.90
2016,02,25,15,50,12.90
2016,02,25,15,51,12.90
2016,02,25,15,52,12.80
2016,02,25,15,53,12.80
2016,02,25,15,54,12.80
2016,02,25,15,55,12.80
2016,02,25,15,56,12.80
2016,02,25,15,57,12.80
2016,02,25,15,58,12.80
2016,02,25,15,59,12.80
2016,02,25,16,00,12.80
2016,02,25,16,01,12.90
2016,02,25,16,02,12.90
2016,02,25,16,03,12.90
2016,02,25,16,04,12.90
2016,02,25,16,05,12.90
2016,02,25,16,06,12.90
2016,02,25,16,07,12.90
2016,02,25,16,08,12.90
2016,02,25,16,09,13.00
2016,02,25,16,10,13.00
2016,02,25,16,11,13.00
2016,02,25,16,12,13.00
2016,02,25,16,13,13.00
2016,02,25,16,14,13.00
2016,02,25,16,15,12.90
2016,02,25,16,16,12.90
2016,02,25,16,17,12.90
2016,02,25,16,18,12.90
2016,02,25,16,19,12.90
2016,02,25,16,20,12.90
2016,02,25,16,21,12.90
2016,02,25,16,22,12.90
2016,02,25,16,23,12.90
2016,02,25,16,24,12.90
2016,02,25,16,25,12.90
2016,02,25,16,26,12.80
2016,02,25,16,27,12.80
2016,02,25,16,28,12.80
2016,02,25,16,29,12.80
2016,02,25,16,30,12.80
2016,02,25,16,31,12.80
2016,02,25,16,32,12.70
2016,02,25,16,33,12.60
2016,02,25,16,34,12.60
2016,02,25,16,35,12.50
2016,02,25,16,36,12.50
2016,02,25,16,37,12.40
2016,02,25,16,38,12.40
2016,02,25,16,39,12.30
2016,02,25,16,40,12.20
2016,02,25,16,41,12.20
2016,02,25,16,42,12.10
2016,02,25,16,43,12.00
2016,02,25,16,44,11.90
2016,02,25,16,45,11.90
2016,02,25,16,46,11.80
2016,02,25,16,47,11.80
2016,02,25,16,48,11.80
2016,02,25,16,49,11.70
2016,02,25,16,50,11.70
2016,02,25,16,51,11.70
2016,02,25,16,52,11.60
2016,02,25,16,53,11.60
2016,02,25,16,54,11.50
2016,02,25,16,55,11.50
2016,02,25,16,56,11.40
2016,02,25,16,57,11.40
2016,02,25,16,58,11.40
2016,02,25,16,59,11.30
2016,02,25,17,00,11.30
2016,02,25,17,01,11.30
2016,02,25,17,02,11.30
2016,02,25,17,03,11.30
2016,02,25,17,04,11.20
2016,02,25,17,05,11.20
2016,02,25,17,06,11.20
2016,02,25,17,07,11.20
2016,02,25,17,08,11.10
2016,02,25,17,09,11.10
2016,02,25,17,10,11.10
2016,02,25,17,11,11.00
2016,02,25,17,12,11.00
2016,02,25,17,13,11.00
2016,02,25,17,14,10.90
2016,02,25,17,15,10.90
2016,02,25,17,16,10.90
2016,02,25,17,17,10.90
2016,02,25,17,18,10.80
2016,02,25,17,19,10.80
2016,02,25,17,20,10.80
2016,02,25,17,21,10.80
2016,02,25,17,22,10.70
2016,02,25,17,23,10.70
2016,02,25,17,24,10.60
2016,02,25,17,25,10.60
2016,02,25,17,26,10.50
2016,02,25,17,27,10.40
2016,02,25,17,28,10.40
2016,02,25,17,29,10.30
2016,02,25,17,30,10.20
2016,02,25,17,31,10.20
2016,02,25,17,32,10.10
2016,02,25,17,33,10.10
2016,02,25,17,34,10.10
2016,02,25,17,35,10.00
2016,02,25,17,36,9.90
2016,02,25,17,37,9.90
2016,02,25,17,38,9.90
2016,02,25,17,39,9.80
2016,02,25,17,40,9.80
2016,02,25,17,41,9.70
2016,02,25,17,42,9.70
2016,02,25,17,43,9.60
2016,02,25,17,44,9.60
2016,02,25,17,45,9.50
2016,02,25,17,46,9.40
2016,02,25,17,47,9.40
2016,02,25,17,48,9.30
2016,02,25,17,49,9.30
2016,02,25,17,50,9.30
2016,02,25,17,51,9.20
2016,02,25,17,52,9.20
2016,02,25,17,53,9.10
2016,02,25,17,54,9.10
2016,02,25,17,55,9.00
2016,02,25,17,56,9.00
2016,02,25,17,57,8.90
2016,02,25,17,58,8.90
2016,02,25,17,59,8.90
2016,02,25,18,00,8.80
2016,02,25,18,01,8.80
2016,02,25,18,02,8.80
2016,02,25,18,03,8.80
2016,02,25,18,04,8.80
2016,02,25,18,05,8.80
2016,02,25,18,06,8.70
2016,02,25,18,07,8.70
2016,02,25,18,08,8.70
2016,02,25,18,09,8.70
2016,02,25,18,10,8.70
2016,02,25,18,11,8.60
2016,02,25,18,12,8.60
2016,02,25,18,13,8.60
2016,02,25,18,14,8.60
2016,02,25,18,15,8.60
2016,02,25,18,16,8.50
2016,02,25,18,17,8.50
2016,02,25,18,18,8.40
2016,02,25,18,19,8.40
2016,02,25,18,20,8.40
2016,02,25,18,21,8.30
2016,02,25,18,22,8.30
2016,02,25,18,23,8.30
2016,02,25,18,24,8.20
2016,02,25,18,25,8.20
2016,02,25,18,26,8.20
2016,02,25,18,27,8.20
2016,02,25,18,28,8.10
2016,02,25,18,29,8.10
2016,02,25,18,30,8.10
2016,02,25,18,31,8.10
2016,02,25,18,32,8.00
2016,02,25,18,33,8.00
2016,02,25,18,34,8.00
2016,02,25,18,35,7.90
2016,02,25,18,36,7.90
2016,02,25,18,37,7.90
2016,02,25,18,38,7.90
2016,02,25,18,39,7.90
2016,02,25,18,40,7.90
2016,02,25,18,41,7.90
2016,02,25,18,42,7.90
2016,02,25,18,43,7.90
2016,02,25,18,44,7.80
2016,02,25,18,45,7.80
2016,02,25,18,46,7.80
2016,02,25,18,47,7.80
2016,02,25,18,48,7.80
2016,02,25,18,49,7.80
2016,02,25,18,50,7.70
2016,02,25,18,51,7.70
2016,02,25,18,52,7.70
2016,02,25,18,53,7.70
2016,02,25,18,54,7.70
2016,02,25,18,55,7.70
2016,02,25,18,56,7.60
2016,02,25,18,57,7.60
2016,02,25,18,58,7.60
2016,02,25,18,59,7.60
2016,02,25,19,00,7.60
2016,02,25,19,01,7.60
2016,02,25,19,02,7.60
2016,02,25,19,03,7.50
2016,02,25,19,04,7.50
2016,02,25,19,05,7.50
2016,02,25,19,06,7.50
2016,02,25,19,07,7.50
2016,02,25,19,08,7.50
2016,02,25,19,09,7.50
2016,02,25,19,10,7.40
2016,02,25,19,11,7.40
2016,02,25,19,12,7.40
2016,02,25,19,13,7.40
2016,02,25,19,14,7.40
2016,02,25,19,15,7.40
2016,02,25,19,16,7.30
2016,02,25,19,17,7.30
2016,02,25,19,18,7.30
2016,02,25,19,19,7.30
2016,02,25,19,20,7.30
2016,02,25,19,21,7.30
2016,02,25,19,22,7.30
2016,02,25,19,23,7.30
2016,02,25,19,24,7.30
2016,02,25,19,25,7.30
2016,02,25,19,26,7.30
2016,02,25,19,27,7.30
2016,02,25,19,28,7.30
2016,02,25,19,29,7.30
2016,02,25,19,30,7.30
2016,02,25,19,31,7.30
2016,02,25,19,32,7.30
2016,02,25,19,33,7.30
2016,02,25,19,34,7.30
2016,02,25,19,35,7.20
2016,02,25,19,36,7.20
2016,02,25,19,37,7.20
2016,02,25,19,38,7.20
2016,02,25,19,39,7.20
2016,02,25,19,40,7.20
2016,02,25,19,41,7.20
2016,02,25,19,42,7.20
2016,02,25,19,43,7.10
2016,02,25,19,44,7.10
2016,02,25,19,45,7.10
2016,02,25,19,46,7.10
2016,02,25,19,47,7.10
2016,02,25,19,48,7.10
2016,02,25,19,49,7.00
2016,02,25,19,50,7.00
2016,02,25,19,51,6.90
2016,02,25,19,52,6.90
2016,02,25,19,53,6.90
2016,02,25,19,54,6.90
2016,02,25,19,55,6.90
2016,02,25,19,56,6.90
2016,02,25,19,57,6.90
2016,02,25,19,58,6.90
2016,02,25,19,59,6.90
2016,02,25,20,00,6.90
2016,02,25,20,01,6.90
2016,02,25,20,02,6.90
2016,02,25,20,03,6.90
